COSMOS 712

Satellite information

Favourite Embed

Satellite Type and Status

PAYLOADIN ORBIT

Key statistics

Satellite COSMOS 712 at a glance.

Uptime

18393

Days in orbit

Revolutions

≈ 12.5

Per day

Orbit

LEO

Low Earth Orbit

Inclination

74.0

Latest

Satellite identification and parameters

Extended collection of information and parameters for COSMOS 712.

Object identification

Identified? True

Debris? False

Object name: COSMOS 712

International designator: 1975-016B

Object number (NORAD): 7679

Object ID (CCSDS): 7679

Country: COMMONWEALTH OF INDEPENDENT STATES (CIS)

Current information (Y/N): Y

RCS size: MEDIUM

Orbital parameters

Period: 114.882 minutes

Inclination: 74.0009 deg

SMA: 7828.198 km

Apoapsis: 1488.893 km

Periapsis: 1411.234 km

RAAN: 223.5914 deg

Eccentricy: 0.0049602

Argument of periapsis: 73.7551 deg

Mean anomaly: 98.4349 deg

Mean motion: 12.5345874 rev/day

Mean motion (dot): 0.00000008 rev/day2

B* drag term: 0.00015063 1/REarth

Two-line elements (TLE)

Creation date: July 8, 2025, 2:27 a.m.

Reference frame: TEME

Reference center: EARTH

Epoch: July 7, 2025, 8:35 p.m. UTC

TLE line 0: 0 COSMOS 712

TLE line 1: 1 07679U 75016B 25188.85806479 .00000008 00000-0 15063-3 0 9995

TLE line 2: 2 07679 74.0009 223.5914 0049602 73.7551 98.4349 12.53458740304100

Live tracking on map

Real-time ground track for satellite COSMOS 712.

In-orbit conjunctions

There are no conjunctions computed for COSMOS 712, at the moment. Check back to stay up to date, as we update our databases every day.

Go to all conjunctions

Associated space launch

Military communications satellites

COSMOS 712 was lifted into orbit during the mission ‘Kosmos-3M | Strela-1M 81-88’, on board a Kosmos-3M space rocket.

The launch took place on Feb. 28, 1975, 2:01 p.m. from 132/2.

For more information about the launch, click the button.

Launch to space Kosmos-3M | Strela-1M 81-88
Kosmos-3M | Strela-1M 81-88

Agency: N/A

Status: Launch Successful

Launch date: Feb. 28, 1975, 2:01 p.m. UTC

Rocket: Kosmos-3M

Launch pad: 132/2

Location: Plesetsk Cosmodrome, Russian Federation

...

Latest news about this satellite

There are no fresh news available about this satellite. Check back as we update our databases every day.


Newsletter sign-up

Weekly statistics, charts and insights to help you stay on top of the space industry.